WICK current weather conditions

sailwx.info

Wind from 320 at 14 knots

Air temperature 10.0° C
Visibility: greater than 5.4 NM
Dewpoint 6.0° C
Present weather: Showers in the vicinity.

Last reported at 2018-Apr-26 11:50 UTC.
Time now 2018-Apr-26 12:55 UTC

Location: N 58°27' W 003°05'.
View on Google Maps.

See reports from other nearby stations

  
Tides and Currents Weather Stations Pressure Air Temp Water Temp Dewpoint Dewpoint Depression Visibility Wind Speed Wind Dir Waves Ship Positions
date/time (UTC)wind fromknots sea level pressurealtimeterstation pressurevisibilityair tempwater tempwave heightnotes
2018-Apr-26 11:50 320 14 5.410.0 Showers in the vicinity.
2018-Apr-26 11:20 300 11 5.410.0 Showers in the vicinity.
2018-Apr-26 10:50 290 12 5.4 9.0 Showers in the vicinity.
2018-Apr-26 10:20 290 11 5.4 8.0
2018-Apr-26 09:50 280 12 5.4 8.0
2018-Apr-26 09:20 250 7 5.4 7.0
2018-Apr-26 08:50 260 6 5.4 5.0
2018-Apr-26 08:20 270 6 5.4 5.0 Light rain.
2018-Apr-26 07:50 280 11 5.4 5.0 Light rain.
2018-Apr-26 07:20 270 13 5.4 6.0 Light rain.
2018-Apr-26 06:50 260 7 5.4 6.0 Light rain.
2018-Apr-26 06:20 260 9 5.4 7.0
2018-Apr-26 05:50 250 4 5.4 5.0
2018-Apr-26 05:20 250 5 5.4 5.0
2018-Apr-26 04:50 230 4 5.4 4.0
2018-Apr-26 04:20 250 4 5.4 4.0
2018-Apr-26 03:50 250 5 5.4 5.0
2018-Apr-26 03:20 250 2 5.4 5.0
2018-Apr-26 02:50 260 6 5.4 5.0
2018-Apr-26 02:20 250 5 5.4 6.0
2018-Apr-26 01:50 230 5 5.4 6.0
2018-Apr-26 01:20 230 4 5.4 6.0
2018-Apr-26 00:50 5.4 5.0
2018-Apr-26 00:20 230 5 5.4 5.0
2018-Apr-25 23:50 240 4 5.4 6.0
2018-Apr-25 23:20 250 6 5.4 6.0
2018-Apr-25 22:50 240 6 5.4 6.0
2018-Apr-25 22:20 240 6 5.4 7.0
2018-Apr-25 21:50 250 9 5.4 6.0
2018-Apr-25 21:20 250 6 5.4 7.0
2018-Apr-25 20:50 240 4 5.4 7.0
2018-Apr-25 20:20 250 6 5.4 8.0
2018-Apr-25 19:50 250 7 5.4 8.0
2018-Apr-25 19:20 240 6 5.4 9.0 Showers in the vicinity.
2018-Apr-25 18:50 5.4 9.0
2018-Apr-25 18:20 320 1 5.4 8.0
2018-Apr-25 17:50 5.4 8.0 Showers in the vicinity.
2018-Apr-25 17:20 130 5 5.4 7.0 Showers in the vicinity.
2018-Apr-25 16:50 130 6 5.4 8.0 Showers in the vicinity.
2018-Apr-25 16:20 110 6 5.4 8.0 Showers in the vicinity.
2018-Apr-25 15:50 090 5 5.4 9.0 Showers in the vicinity.
2018-Apr-25 15:20 5.4 9.0
2018-Apr-25 14:50 080 4 5.4 9.0
2018-Apr-25 14:20 130 4 5.4 8.0
2018-Apr-25 13:50 5.4 9.0
2018-Apr-25 13:20 290 5 5.4 8.0 Showers in the vicinity.
2018-Apr-25 12:50 290 6 5.4 7.0 Showers in the vicinity.
2018-Apr-25 12:20 280 17 5.4 9.0 Light rain showers.
2018-Apr-25 11:50 280 4 5.4 9.0 Rain showers.
2018-Apr-25 11:20 270 9 5.4 9.0 Showers in the vicinity.
2018-Apr-25 10:50 190 9 5.411.0 Showers in the vicinity.
2018-Apr-25 10:20 210 12 5.411.0
2018-Apr-25 09:50 190 7 5.410.0
2018-Apr-25 09:20 220 8 5.410.0
2018-Apr-25 08:50 220 6 5.410.0
2018-Apr-25 08:20 210 8 5.4 9.0
2018-Apr-25 07:50 210 7 5.4 8.0
2018-Apr-25 07:20 210 6 5.4 8.0
2018-Apr-25 06:50 220 5 5.4 8.0
2018-Apr-25 06:20 210 5 5.4 7.0
2018-Apr-25 05:50 5.4 5.0
2018-Apr-25 05:20 5.4 6.0
2018-Apr-25 04:50 240 2 5.4 6.0
2018-Apr-25 04:20 5.4 6.0
2018-Apr-25 03:50 230 4 5.4 5.0
2018-Apr-25 03:20 250 2 5.4 6.0
2018-Apr-25 02:50 270 1 5.4 6.0
2018-Apr-25 02:20 270 5 5.4 6.0
2018-Apr-25 01:50 260 2 5.4 6.0
2018-Apr-25 01:20 260 2 5.4 5.0
2018-Apr-25 00:50 250 1 5.4 5.0
2018-Apr-25 00:20 290 1 5.4 5.0
2018-Apr-24 23:50 290 2 5.4 5.0
2018-Apr-24 23:20 240 2 5.4 5.0
2018-Apr-24 22:50 270 2 5.4 6.0
2018-Apr-24 22:20 230 1 5.4 6.0
2018-Apr-24 21:50 180 0 5.4 7.0
2018-Apr-24 21:20 160 4 5.4 7.0
2018-Apr-24 20:50 230 0 5.4 7.0
2018-Apr-24 20:20 5.4 7.0
2018-Apr-24 19:50 300 5 5.4 7.0
2018-Apr-24 19:20 320 6 5.4 8.0
2018-Apr-24 18:50 300 4 5.4 8.0 Light rain showers.
2018-Apr-24 18:20 310 6 5.4 8.0 Light rain showers.
2018-Apr-24 17:50 320 6 5.4 9.0 Light rain showers.
2018-Apr-24 17:20 5.4 8.0 Light rain showers.
2018-Apr-24 16:50 5.4 9.0 Light rain showers.
2018-Apr-24 16:20 5.410.0 Showers in the vicinity.
2018-Apr-24 15:50 320 12 5.410.0 Showers in the vicinity.
2018-Apr-24 15:20 330 11 5.410.0
2018-Apr-24 14:50 280 5 5.4 9.0 Showers in the vicinity.
2018-Apr-24 14:20 320 13 5.411.0
2018-Apr-24 13:50 320 13 5.411.0
2018-Apr-24 13:20 320 14 5.411.0
2018-Apr-24 12:50 300 15 5.411.0
2018-Apr-24 12:20 310 19 5.411.0